Regional Weather Roundup
Issued by NWS Boston, MA

Home | Current Version | Previous Version | Text Only | Print | Product List | Glossary On
Versions: 1 2 3 4 5 6 7 8 9 10 11 12 13 14 15 16 17 18 19 20 21 22 23 24 25 26 27 28 29 30 31 32 33 34 35 36 37 38 39 40 41 42 43 44 45 46 47 48 49 50
702
ASUS41 KBOX 251010
RWRBOX

REGIONAL WEATHER ROUNDUP
NATIONAL WEATHER SERVICE TAUNTON MA
600 AM EDT MON SEP 25 2017

NOTE:  "FAIR" INDICATES FEW OR NO CLOUDS BELOW 12,000 FEET WITH NO
SIGNIFICANT WEATHER AND/OR OBSTRUCTIONS TO VISIBILITY.

MAZALL-251100-
EASTERN MASSACHUSETTS

CITY           SKY/WX    TMP DP  RH WIND       PRES   REMARKS
BOSTON         PTCLDY    66  63  90 N3        30.05R
BEVERLY        CLEAR     62  61  96 CALM      30.04R
LAWRENCE       CLEAR     67  64  90 CALM      30.07R
BEDFORD        CLEAR     62  59  90 CALM      30.05R
BLUE HILL        N/A     72  65  78 NE6       30.05R
NORWOOD        FOG       61  60  97 CALM      30.04R VSB 1/2
MARSHFIELD     CLEAR     61  61 100 CALM      30.04S
PLYMOUTH       CLEAR     61  58  90 CALM      30.05R
TAUNTON        CLEAR     58  56  93 CALM      30.04R FOG
NEW BEDFORD    CLEAR     59  58  96 CALM      30.04R
$$

MAZALL-251100-
CAPE COD AND THE ISLANDS

CITY           SKY/WX    TMP DP  RH WIND       PRES   REMARKS
FALMOUTH       PTCLDY    59  59 100 CALM      30.06R
HYANNIS        PTCLDY    60  59  96 CALM      30.04R
CHATHAM        FOG       63  63 100 E3        30.06R VSB 1/4
PROVINCETOWN   CLEAR     63  62  97 SE3       30.05S
NANTUCKET      FOG       61  61 100 N5        30.05S VSB 1/2
MARTHAS VNYRD  FOG       60  59  96 CALM      30.05R VSB 1/2
$$

MAZALL-251100-
CENTRAL AND WESTERN MASSACHUSETTS

CITY           SKY/WX    TMP DP  RH WIND       PRES   REMARKS
WORCESTER      CLEAR     74  64  71 N8        30.08R
FITCHBURG      CLEAR     67  66  97 CALM      30.07R
ORANGE         CLEAR     61  61 100 CALM      30.08R
SPRINGFIELD    CLEAR     62  61  96 CALM      30.04S
WESTFIELD      CLEAR     65  65 100 CALM      30.06R
NORTH ADAMS    FOG       59  59 100 CALM      30.10S VSB 1/4
PITTSFIELD     FOG       60  58  92 CALM      30.10R VSB 3/4
$$

RIZALL-251100-
RHODE ISLAND

CITY           SKY/WX    TMP DP  RH WIND       PRES   REMARKS
PROVIDENCE     CLEAR     64  62  93 CALM      30.05R
NEWPORT        CLEAR     62  62 100 CALM      30.04R
BLOCK ISLAND   CLEAR     65  63  93 CALM      30.05R
SMITHFIELD     CLEAR     61  60  97 CALM      30.06R
WESTERLY       CLEAR     62  60  93 CALM      30.05R
$$

CTZALL-251100-
CONNECTICUT

CITY           SKY/WX    TMP DP  RH WIND       PRES   REMARKS
BRADLEY INTL   CLEAR     66  65  96 N3        30.05R
HARTFORD       CLEAR     67  66  97 CALM      30.04S
BRIDGEPORT     CLEAR     70  66  87 NE7       30.03S
DANBURY        CLEAR     64  63  96 CALM      30.07R FOG
GROTON         CLEAR     62  60  93 N3        30.04R
NEW HAVEN      CLEAR     65  63  93 CALM      30.04R
CHESTER        FAIR      64  63  94 MISG      30.05S
MERIDEN        CLEAR     63  62  97 CALM      30.05R
WILLIMANTIC    CLEAR     63  62  97 CALM      30.05R
OXFORD         CLEAR     71  65  81 NE6       30.07R
$$

MEZ002-015-021-024-NHZ003-005-008-011-012-014-VTZ005-008-251100-
NORTHERN NEW ENGLAND

CITY           SKY/WX    TMP DP  RH WIND       PRES   REMARKS
PORTLAND ME    CLEAR     64  62  93 CALM      30.06R
BANGOR ME      PTCLDY    66  63  90 CALM      30.06R
CONCORD NH     CLEAR     63  61  93 CALM      30.08R FOG
MANCHESTER NH  CLEAR     70  67  90 N3        30.05R
NASHUA NH      CLEAR     65  65 100 CALM      30.07R
PORTSMOUTH NH  CLEAR     65  65  98 CALM      30.04R
JAFFREY NH     CLEAR     62  62 100 CALM      30.11R
KEENE NH       FOG       63  61  94 CALM      30.10R VSB 1/4
BURLINGTON VT  CLEAR     67  66  97 CALM      30.09R
MT. WASHINGTON PTCLDY    57  54  88 NW12        N/A
$$

NYZ052-076-251100-
EASTERN NEW YORK

CITY           SKY/WX    TMP DP  RH WIND       PRES   REMARKS
ALBANY         PTCLDY    65  63  93 CALM      30.08S
NEW YORK CITY  CLEAR     72  66  81 CALM      30.02R
$$

ANZALL-251100-
MARINE OBSERVATIONS

STATION/POSITION TIME  TEMP    WIND        PRES    VSBY  WAVE
                       AIR SEA DIR/SP/G                  HT/PER
                 (UTC) (F)     (DEG/KT/KT) (MB)    (MI)  (FT/S)
BOSTON BUOY      0950   64 63  130/  6/  6 1017.1R         2/13
BUZZARDS BAY     0900   68     340/  3/  3 1017.3F
NANTUCKET SOUND  0950   61 62   90/  6/  8 1017.4R         1/13
MASS BAY-STELLWA 0904   64 61  210/  4/  4 1016.2R         3/11
ISLE OF SHOALS   0900   67     240/  3/  4 1016.8R
S OF BLOCK IS    NOT AVBL
$$

......................KEY.........................
  SKY/WX - SKY CONDITION/PRESENT WEATHER
  TMP    - TEMPERATURE IN FAHRENHEIT
  DWPT   - DEWPOINT IN FAHRENHEIT
  RH     - RELATIVE HUMIDITY IN PERCENT
  WIND   - DIRECTION AND SPEED IN MPH
  PRES   - MEAN SEA LEVEL PRESSURE IN INCHES OF HG
  WCI    - WIND CHILL INDEX
  VSB    - VISIBILITY IN MILES
  HX     - HEAT INDEX
  TC     - TEMPERATURE IN CELSIUS
  VRB    - VARIABLE WIND DIRECTION
  N/A    - NOT AVAILABLE




USA.gov is the U.S. government's official web portal to all federal, state and local government web resources and services.